This is the latest recevied weather packets stored in our database for station/object K7FLA. If no packets are shown the sender has not sent any weather packets the latest 10 day(s).
| Time | Temp. | Humidity | Pressure | Rain* | Wind** | Luminosity | Snow |
|---|---|---|---|---|---|---|---|
| 1788057644 | 29.44° C | 33% | 1093.6 hPa | 0 mm | - | 0 W/m² | - |
| 1788057342 | 29.44° C | 33% | 1093.7 hPa | 0 mm | - | 0 W/m² | - |
| 1788057037 | 30° C | 34% | 1093.6 hPa | 0 mm | - | 0 W/m² | - |
| 1788056732 | 30.56° C | 35% | 1093.5 hPa | 0 mm | - | 1 W/m² | - |
| 1788056427 | 30.56° C | 30% | 1093.4 hPa | 0 mm | - | 2 W/m² | - |
| 1788056122 | 31.11° C | 30% | 1093.3 hPa | 0 mm | - | 4 W/m² | - |
| 1788055816 | 31.11° C | 29% | 1093.6 hPa | 0 mm | - | 7 W/m² | - |
| 1788055520 | 31.11° C | 29% | 1093.4 hPa | 0 mm | - | 11 W/m² | - |
| 1788055204 | 31.67° C | 29% | 1093.5 hPa | 0 mm | - | 14 W/m² | - |
| 1788054894 | 31.67° C | 29% | 1093.5 hPa | 0 mm | - | 17 W/m² | - |
| 1788054590 | 31.67° C | 29% | 1093.5 hPa | 0 mm | - | 19 W/m² | - |
| 1788054286 | 32.22° C | 28% | 1093.4 hPa | 0 mm | - | 22 W/m² | - |
| 1788053982 | 32.22° C | 28% | 1093.3 hPa | 0 mm | - | 24 W/m² | - |
| 1788053676 | 32.78° C | 28% | 1093.4 hPa | 0 mm | - | 26 W/m² | - |
| 1788053370 | 32.78° C | 28% | 1093.5 hPa | 0 mm | - | 28 W/m² | - |
| 1788053066 | 32.78° C | 29% | 1093.2 hPa | 0 mm | - | 30 W/m² | - |
| 1788052762 | 33.33° C | 30% | 1093.4 hPa | 0 mm | - | 33 W/m² | - |
| 1788052458 | 33.33° C | 29% | 1093.4 hPa | 0 mm | - | 44 W/m² | - |
| 1788052158 | 33.33° C | 29% | 1093.3 hPa | 0 mm | - | 60 W/m² | - |
| 1788051852 | 33.89° C | 30% | 1093.4 hPa | 0 mm | - | 69 W/m² | - |
| 1788051547 | 33.89° C | 28% | 1093.3 hPa | 0 mm | - | 78 W/m² | - |
| 1788051246 | 33.89° C | 29% | 1093.3 hPa | 0 mm | - | 93 W/m² | - |
| 1788050944 | 34.44° C | 28% | 1093.2 hPa | 0 mm | - | 96 W/m² | - |
| 1788050640 | 34.44° C | 28% | 1093.3 hPa | 0 mm | - | 108 W/m² | - |
| 1788050340 | 34.44° C | 29% | 1093.1 hPa | 0 mm | - | 119 W/m² | - |
* Rain latest hour (hover to see other rain measurements)
** Current wind speed in m/s (hover to see current wind gust speed)